カタログに戻る

FENGYUN 1C DEB

運用中PO
NORAD 37433·DEBRIS·🇨🇳 China

打ち上げ May 10, 1999 から Taiyuan Satellite Launch Center

Loading…

次のパス (今後24時間)

TLE

経年Source: Space-Track

元期: Sep 4, 2026, 07:42 UTC

1 37433U 99025EHB 26247.32102672  .00003782  00000-0  17940-2 0  9992
2 37433  98.0897  65.7986 0206536 168.3235 192.2836 14.09453095274738

AllMySatでFENGYUN 1C DEBをリアルタイム追跡

Download on the App Store